This demonstration page uses our WeatherBlox Daily Observations layout. Learn more.

Left ArrowRight Arrow

31.84235, -102.49876

Hourly Observations for June 28, 2022

Temp ( °F °C ) Dew Point ( °F °C ) Humidity (%) Winds ( mph kmh ) Pressure ( in mb ) Visibility ( mi km ) Precip ( " mm )
12:53 am 00:53 Cloudy 78 25.6 60 15.6 54 54 E 6 9 30.11 1020 10 16 0.00 0.00
1:53 am 01:53 Clear 78 25.6 56 13.3 47 47 E 9 15 30.10 1019 10 16 0.00 0.00
2:53 am 02:53 Clear 77 25 58 14.4 52 52 E 5 7 30.09 1019 10 16 0.00 0.00
3:53 am 03:53 Clear 75 23.9 57 13.9 54 54 S 10 17 30.11 1020 10 16 0.00 0.00
4:53 am 04:53 Mostly Cloudy 74 23.3 58 14.4 57 57 SSW 13 20 30.12 1020 10 16 0.00 0.00
5:53 am 05:53 Mostly Cloudy 73 22.8 58 14.4 59 59 SW 7 11 30.11 1020 10 16 0.00 0.00
6:53 am 06:53 Sunny 72 22.2 58 14.4 61 61 WSW 6 9 30.11 1020 10 16 0.00 0.00
7:53 am 07:53 Sunny 73 22.8 58 14.4 59 59 WSW 5 7 30.12 1020 10 16 0.00 0.00
8:53 am 08:53 Mostly Sunny 76 24.4 59 15 56 56 WNW 3 6 30.14 1021 10 16 0.00 0.00
9:53 am 09:53 Sunny 78 25.6 60 15.6 54 54 SW 3 6 30.14 1021 10 16 0.00 0.00
10:53 am 10:53 Sunny 82 27.8 59 15 46 46 VRB 3 6 30.13 1020 10 16 0.00 0.00
11:53 am 11:53 Sunny 84 28.9 59 15 43 43 WSW 5 7 30.12 1020 10 16 0.00 0.00
12:53 pm 12:53 Mostly Sunny 88 31.1 58 14.4 36 36 VRB 6 9 30.11 1020 10 16 0.00 0.00
1:53 pm 13:53 Mostly Cloudy 88 31.1 57 13.9 35 35 E 8 13 30.08 1019 10 16 0.00 0.00
2:53 pm 14:53 Cloudy 88 31.1 56 13.3 34 34 Calm 30.06 1018 10 16 0.00 0.00
3:53 pm 15:53 Mostly Cloudy 89 31.7 55 12.8 31 31 ENE 7 11 30.04 1017 10 16 0.00 0.00
4:53 pm 16:53 Sunny 91 32.8 54 12.2 28 28 NE 24 39 30.01 1016 10 16 0.00 0.00
5:03 pm 17:03 Sunny with Light Rain 90 32.2 57 13.9 33 33 ENE 25 41 29.93 1013 10 16 0.00 0.00
5:53 pm 17:53 Sunny 88 31.1 62 16.7 42 42 ENE 21 33 30.01 1016 10 16 0.00 0.00
6:53 pm 18:53 Sunny 86 30 60 15.6 42 42 ENE 20 31 30.01 1016 10 16 0.00 0.00
7:53 pm 19:53 Sunny with Nearby Thunderstorms 85 29.4 61 16.1 45 45 ENE 13 20 30.02 1017 10 16 0.00 0.00
8:07 pm 20:07 Sunny 85 29.4 61 16.1 45 45 ENE 14 22 29.95 1014 10 16 0.00 0.00
8:17 pm 20:17 Partly Cloudy with Nearby Thunderstorms 84 28.9 62 16.7 48 48 ENE 13 20 29.96 1015 10 16 0.00 0.00
8:53 pm 20:53 Mostly Sunny 82 27.8 59 15 46 46 E 12 19 30.04 1017 10 16 0.00 0.00
9:46 pm 21:46 Cloudy 76 24.4 62 16.7 62 62 WSW 23 37 30.04 1017 10 16 0.00 0.00
9:53 pm 21:53 Cloudy 76 24.4 61 16.1 60 60 WSW 21 33 30.08 1019 10 16 0.00 0.00
9:56 pm 21:56 Cloudy with Nearby Thunderstorms 76 24.4 61 16.1 60 60 WSW 18 30 30.04 1017 10 16 0.00 0.00
10:17 pm 22:17 Cloudy 74 23.3 62 16.7 67 67 SW 12 19 30.07 1018 10 16 0.00 0.00
10:25 pm 22:25 Cloudy with Nearby Thunderstorms 74 23.3 63 17.2 69 69 S 12 19 30.07 1018 10 16 0.00 0.00
10:38 pm 22:38 Cloudy with Thunderstorms 75 23.9 63 17.2 66 66 SSE 15 24 30.08 1019 10 16 0.00 0.00
10:53 pm 22:53 Cloudy with Thunderstorms 72 22.2 65 18.3 79 79 SSE 10 17 30.11 1020 7 11 0.00 0.00
11:18 pm 23:18 Cloudy with Nearby Thunderstorms 72 22.2 66 18.9 82 82 S 12 19 30.11 1020 10 16 0.00 0.00
11:53 pm 23:53 Cloudy with Light Rain 70 21.1 66 18.9 87 87 S 15 24 30.11 1020 9 14 0.02 0.51

Powered by AerisWeather